Temp
56 56 57 57 57 57 57 58 58 59 60 60 60 61 61 61 60 60 59 59 58 58 57 57 56 56 56 56 57 57 57 57 57 56 56 56 56 56 55 56 56 55 55 55 55 55 55 55 55 54 53 53 53 53 53 53 52 52 52 52 52 52 51 51 51 51 51 50 50
56 57 57 57 58 58 58 58 58 59 60 60 61 61 61 61 60 59 59 59 58 57 56 56 55 55 55 56 56 56 56 56 56 56 56 55 55 55 55 55 55 55 55 55 55 55 55 55 54 54 53 53 53 53 53 53 52 52 52 52 52 51 51 51 51 51 51 50 50
56 57 58 58 58 58 57 57 58 59 60 60 60 61 61 61 60 59 58 58 58 57 56 55 54 55 55 56 56 56 56 56 56 56 55 55 55 55 55 55 55 55 55 55 55 55 55 55 54 53 53 52 53 53 52 52 52 52 51 51 51 51 51 50 51 51 51 50 50
57 58 58 58 58 58 58 58 59 59 60 60 60 61 61 60 59 58 58 57 57 56 55 54 54 54 55 55 56 56 56 56 56 55 55 55 55 55 55 55 55 54 54 54 54 54 54 54 54 53 53 53 53 53 52 52 52 51 51 51 51 51 50 50 51 51 50 50 50
58 58 58 58 59 59 59 59 59 59 59 60 60 60 60 59 58 57 57 56 55 55 54 54 53 54 54 55 55 56 56 55 55 55 55 55 55 55 55 55 54 54 54 54 53 53 53 53 53 53 53 53 53 52 52 52 51 51 51 50 50 50 50 50 50 50 50 49 49
58 59 59 59 60 59 59 59 59 59 59 60 60 59 58 57 57 56 56 55 55 54 54 54 54 54 54 55 55 55 55 55 55 55 55 54 54 54 54 54 54 54 53 53 53 52 53 53 52 52 52 52 52 52 52 51 51 51 50 50 50 50 50 50 50 50 49 49 49
60 60 60 60 60 59 59 59 59 59 60 60 60 59 58 57 57 56 56 55 54 53 53 53 53 54 54 55 55 55 55 54 54 54 54 54 54 54 54 54 53 53 53 53 53 52 53 53 52 52 51 51 51 51 51 51 50 50 50 50 50 50 50 50 50 49 49 48 48
61 61 60 60 59 59 59 59 59 59 60 59 59 58 57 57 56 56 55 54 53 53 53 53 53 54 54 54 54 54 54 54 54 54 54 54 54 54 53 53 53 53 53 53 53 52 52 52 52 52 51 51 51 51 51 50 49 49 49 50 50 50 50 50 49 49 48 48 47
60 60 59 59 59 59 59 59 60 60 59 59 58 58 57 56 55 54 54 53 52 53 53 53 54 54 54 54 54 54 54 54 54 54 54 54 54 53 53 53 53 52 52 52 52 52 52 52 51 51 51 51 51 51 50 49 49 49 49 49 50 50 50 49 49 49 48 47 46
59 58 58 58 58 59 59 59 60 60 59 58 58 57 56 55 54 54 53 52 52 53 53 53 54 54 54 54 54 54 54 54 54 54 54 53 53 53 53 52 52 52 52 52 52 52 51 51 51 51 51 51 51 50 50 49 48 48 48 49 49 49 49 49 49 48 48 47 46
58 58 58 58 59 59 59 59 59 59 58 57 56 56 55 54 54 53 53 52 53 53 53 54 54 54 54 54 54 54 53 53 53 53 53 53 53 52 52 52 52 52 52 51 51 51 51 51 51 51 50 51 50 50 49 49 48 48 48 49 48 48 48 48 48 48 48 47 46
58 58 58 58 59 59 59 58 58 57 56 55 55 54 54 54 53 53 53 53 53 53 53 54 54 54 54 53 53 53 53 53 53 53 53 52 52 52 52 51 51 51 51 51 51 51 51 51 51 50 50 50 50 50 50 49 48 48 48 48 48 48 47 48 48 48 48 47 46
58 58 58 58 58 58 58 57 56 55 55 54 54 54 53 53 53 53 53 53 53 53 53 53 54 53 53 53 53 53 53 53 53 52 52 51 51 51 51 51 51 51 51 50 50 50 50 50 50 49 49 50 50 50 50 49 48 48 48 48 48 48 47 47 47 47 47 46 45
58 58 58 57 57 57 56 56 55 55 54 53 53 53 53 52 53 53 53 53 53 53 53 53 53 53 53 52 52 52 52 52 52 52 52 51 51 51 51 51 50 50 50 50 50 49 49 50 49 49 49 49 49 49 49 49 48 48 48 47 47 47 47 47 47 47 46 45 45
58 57 57 57 57 56 56 55 55 54 53 52 52 52 52 52 53 53 53 53 52 52 52 52 52 52 51 51 51 52 52 52 52 51 51 51 51 51 50 50 50 50 50 50 49 49 49 49 49 49 49 48 49 49 49 49 48 48 48 47 47 47 47 47 47 46 46 45 44
57 57 57 57 56 56 55 55 54 53 52 52 52 52 52 53 53 53 52 52 52 52 52 51 51 50 50 51 51 51 51 51 51 51 51 51 50 50 50 50 49 49 49 49 49 49 49 49 49 49 48 48 48 48 48 49 48 48 48 48 47 47 47 47 46 46 45 45 44
57 57 57 57 56 55 55 54 53 52 52 51 52 52 52 52 52 52 52 52 51 51 51 51 50 50 50 50 51 51 51 51 51 51 51 51 50 50 50 49 49 48 48 48 49 49 49 49 49 49 48 48 48 48 48 48 48 48 48 48 47 47 47 46 46 46 45 45 44
57 57 57 56 55 54 53 53 52 51 51 51 51 51 52 52 52 51 51 51 51 51 50 50 50 50 50 50 50 51 51 51 51 51 51 50 50 50 49 48 48 48 48 48 48 49 49 49 49 48 48 48 48 48 48 48 48 48 48 48 47 47 47 46 46 46 45 45 44
57 56 56 55 54 53 52 51 51 51 51 51 51 51 51 51 51 51 51 51 51 51 50 50 50 50 50 50 50 50 50 51 50 50 50 49 49 49 48 48 47 47 47 48 48 48 48 48 48 48 48 48 48 48 48 48 48 48 48 48 47 47 47 46 46 46 45 45 44
56 56 55 54 53 52 51 51 51 51 51 51 51 51 51 51 51 51 50 50 51 51 50 50 50 50 50 50 50 50 50 50 50 49 49 48 48 47 47 47 47 47 47 47 48 48 48 48 48 48 48 48 48 48 48 48 48 48 48 48 47 47 46 46 46 45 45 45 44
55 54 54 53 52 51 51 51 51 51 51 51 51 50 50 51 51 50 50 50 51 50 50 50 50 50 49 49 49 49 49 49 49 48 48 47 47 46 46 46 46 47 47 47 48 48 48 48 48 48 48 48 48 48 48 48 48 47 47 47 47 47 46 46 45 45 45 45 44
54 53 53 52 51 51 51 51 51 51 51 50 50 50 50 50 50 50 50 50 50 50 50 50 50 49 49 49 49 48 48 48 48 47 47 47 46 46 46 46 46 47 47 47 47 47 47 47 47 47 48 48 48 48 48 47 47 47 47 47 47 47 46 46 45 45 45 45 45
53 52 52 51 51 51 51 51 51 50 50 50 50 50 50 49 49 50 50 50 50 50 50 50 50 49 49 48 48 48 48 47 47 46 46 46 45 45 45 46 46 46 46 47 47 46 46 46 47 47 48 48 48 48 48 47 47 47 46 46 46 46 46 46 45 45 45 45 45
52 51 51 50 50 51 51 51 50 50 50 49 49 49 49 49 49 49 49 49 49 49 49 49 49 48 48 48 48 48 47 46 46 46 45 45 45 45 45 46 46 46 46 46 45 45 45 46 47 48 48 49 49 48 48 47 47 46 46 46 45 45 45 45 45 45 45 45 45
51 51 50 50 50 50 50 50 50 49 49 49 48 48 48 48 49 49 49 49 49 48 48 48 47 47 47 47 47 47 47 46 46 45 45 45 45 45 46 46 47 47 46 45 43 42 43 44 45 47 48 48 48 48 48 47 47 46 46 45 44 44 44 44 44 44 45 45 45
50 50 50 50 50 50 50 50 49 49 48 48 48 48 48 48 48 48 48 48 48 48 47 47 46 46 46 46 46 46 46 46 45 45 44 44 44 45 45 46 46 46 45 43 42 42 42 43 44 45 46 47 47 47 47 47 46 46 45 44 44 43 43 43 43 44 44 44 45
50 50 50 50 50 50 49 49 48 48 48 47 47 48 48 48 48 48 48 48 47 47 47 46 46 46 46 46 45 45 45 44 44 44 43 44 44 44 45 46 46 45 44 42 41 42 43 43 44 44 45 46 46 46 46 46 46 45 44 44 43 43 43 42 43 43 43 44 44
49 49 49 49 49 49 48 48 48 47 47 47 47 48 48 48 48 48 47 47 47 46 46 46 46 46 46 46 45 44 43 43 43 43 43 43 43 44 44 45 45 44 43 41 41 42 42 43 44 44 44 44 45 45 45 45 45 45 44 44 44 43 43 43 43 43 43 43 43
49 49 49 48 48 48 48 47 47 47 47 47 48 48 48 48 48 47 47 46 46 46 46 46 46 46 45 44 44 43 43 42 42 42 43 43 43 44 44 44 44 43 42 40 41 42 42 43 43 43 43 43 44 44 45 45 45 45 44 44 44 44 43 43 43 43 43 42 43
49 49 48 48 47 47 47 47 47 47 47 48 48 48 48 47 47 46 46 46 45 45 45 45 45 44 44 43 43 43 42 42 42 42 43 43 43 43 43 44 44 43 42 40 41 42 42 42 43 43 43 43 43 44 44 45 45 44 44 44 44 43 43 43 42 42 42 42 42
49 48 48 47 47 47 47 47 47 47 48 48 48 47 47 46 46 46 45 45 44 44 44 44 43 43 43 43 43 43 42 42 42 43 42 42 42 42 43 43 43 42 41 40 41 41 42 42 42 42 42 42 43 44 44 45 45 44 44 43 43 43 42 42 42 42 42 42 41
48 48 47 47 47 47 47 47 47 48 48 47 47 47 46 45 45 45 44 44 43 43 43 43 42 42 42 42 42 42 42 42 42 42 42 42 42 42 42 43 43 42 41 40 41 41 41 42 42 42 42 42 42 43 44 44 44 44 44 43 43 42 42 42 42 42 42 41 41
47 47 47 47 46 47 47 47 47 47 47 47 46 45 44 44 44 43 43 43 43 42 42 42 42 42 42 42 43 43 42 42 42 42 41 41 41 41 42 42 43 42 41 40 40 41 41 41 41 41 41 41 42 43 44 44 44 44 44 43 43 43 42 42 42 41 41 41 41
47 47 46 46 46 46 46 46 46 46 46 45 44 44 43 43 42 42 42 42 42 42 42 42 42 42 42 42 43 42 42 42 42 41 41 41 41 41 41 42 43 41 40 39 40 40 40 40 41 41 41 41 42 43 44 44 44 44 43 43 43 42 42 42 42 41 41 41 42
47 46 46 46 46 45 45 45 45 45 44 44 43 43 42 42 41 41 41 41 40 40 40 41 41 41 41 42 42 42 42 42 41 41 41 41 41 41 41 41 42 41 39 39 39 40 40 40 40 40 41 41 42 43 44 44 44 43 43 43 42 42 42 42 42 42 42 42 42
47 46 46 45 45 45 44 44 44 44 43 43 42 41 41 41 41 41 40 40 40 40 40 41 41 41 42 42 42 42 41 41 41 41 41 41 41 41 41 41 41 40 39 39 39 39 39 40 40 40 40 41 42 43 43 43 43 43 43 42 42 42 42 42 42 42 42 42 41
46 46 45 44 44 44 44 44 44 43 42 41 41 40 40 40 40 40 40 40 40 41 41 41 42 42 42 42 42 41 41 40 40 40 40 40 40 40 40 41 41 40 39 39 38 39 39 39 39 40 40 41 42 42 43 43 43 42 42 42 42 42 42 42 42 42 42 41 40
46 45 45 44 44 44 44 44 43 42 41 41 40 40 40 40 39 39 40 41 41 41 42 42 42 42 41 41 41 40 40 40 40 40 40 40 40 40 40 40 40 40 39 38 38 38 39 39 39 39 40 41 41 42 42 42 42 42 42 42 42 42 42 42 42 41 40 39 39
46 45 45 44 44 44 43 43 42 41 41 40 40 40 40 39 39 39 40 41 42 42 42 42 41 41 40 40 41 41 40 40 40 40 40 40 39 39 39 39 40 40 39 38 38 38 38 39 39 39 40 40 41 41 41 41 41 41 41 41 41 41 41 41 41 40 39 39 39
46 45 45 44 44 43 43 42 42 41 41 40 40 40 39 39 39 39 40 41 41 42 42 41 40 40 40 40 41 41 40 40 40 40 39 39 39 38 38 39 39 39 39 38 38 38 38 38 39 39 39 40 41 41 41 41 41 40 40 40 40 40 40 40 40 39 39 40 40
45 45 45 44 44 43 43 42 41 41 40 40 39 39 39 39 39 40 40 41 41 41 41 41 40 40 40 40 40 40 40 40 40 40 39 39 38 38 38 38 39 39 39 39 38 38 38 38 39 39 39 40 40 41 41 41 40 39 39 39 39 39 38 39 38 39 39 40 41
MSLP
1011.54 1011.70 1011.90 1012.22 1012.58 1012.94 1013.22 1013.42 1013.62 1013.70 1013.82 1013.98 1014.18 1014.42 1014.66 1014.86 1015.06 1015.34 1015.58 1015.78 1015.98 1016.30 1016.58 1016.86 1017.14 1017.42 1017.62 1017.78 1017.94 1018.06 1018.18 1018.34 1018.50 1018.66 1018.82 1018.94 1019.02 1019.14 1019.22 1019.30 1019.38 1019.42 1019.50 1019.54 1019.62 1019.66 1019.66 1019.70 1019.74 1019.82 1019.90 1019.90 1019.94 1019.94 1019.98 1020.02 1020.02 1020.02 1019.98 1019.98 1019.90 1019.86 1019.86 1019.78 1019.70 1019.66 1019.58 1019.58 1019.58
1011.46 1011.66 1011.90 1012.26 1012.58 1012.86 1013.14 1013.34 1013.58 1013.70 1013.86 1013.98 1014.14 1014.34 1014.58 1014.78 1015.02 1015.30 1015.54 1015.78 1016.02 1016.30 1016.62 1016.94 1017.18 1017.42 1017.62 1017.78 1017.94 1018.06 1018.18 1018.34 1018.54 1018.70 1018.86 1018.94 1019.06 1019.14 1019.26 1019.30 1019.38 1019.42 1019.46 1019.54 1019.58 1019.58 1019.62 1019.66 1019.70 1019.74 1019.82 1019.86 1019.90 1019.86 1019.90 1019.98 1019.98 1019.94 1019.90 1019.86 1019.86 1019.86 1019.86 1019.74 1019.66 1019.58 1019.58 1019.58 1019.54
1011.46 1011.70 1011.98 1012.22 1012.50 1012.78 1013.02 1013.26 1013.42 1013.58 1013.74 1013.94 1014.18 1014.38 1014.58 1014.78 1015.02 1015.26 1015.54 1015.82 1016.10 1016.38 1016.70 1016.98 1017.26 1017.46 1017.62 1017.74 1017.94 1018.10 1018.22 1018.38 1018.54 1018.70 1018.86 1018.98 1019.06 1019.14 1019.26 1019.30 1019.38 1019.46 1019.50 1019.54 1019.54 1019.58 1019.58 1019.62 1019.66 1019.70 1019.78 1019.82 1019.82 1019.82 1019.86 1019.94 1019.98 1019.94 1019.86 1019.78 1019.82 1019.82 1019.78 1019.70 1019.62 1019.58 1019.58 1019.54 1019.50
1011.46 1011.70 1011.94 1012.14 1012.38 1012.62 1012.86 1013.02 1013.26 1013.46 1013.70 1013.90 1014.14 1014.38 1014.58 1014.86 1015.06 1015.30 1015.58 1015.86 1016.18 1016.46 1016.74 1017.02 1017.26 1017.46 1017.66 1017.78 1017.94 1018.06 1018.26 1018.42 1018.58 1018.70 1018.82 1018.94 1019.06 1019.14 1019.26 1019.34 1019.42 1019.46 1019.50 1019.54 1019.58 1019.58 1019.58 1019.62 1019.66 1019.70 1019.70 1019.70 1019.70 1019.70 1019.78 1019.86 1019.90 1019.86 1019.86 1019.82 1019.78 1019.74 1019.70 1019.62 1019.58 1019.58 1019.58 1019.54 1019.50
1011.42 1011.66 1011.90 1012.14 1012.30 1012.54 1012.74 1012.90 1013.14 1013.38 1013.62 1013.86 1014.10 1014.38 1014.66 1014.90 1015.14 1015.42 1015.70 1015.98 1016.30 1016.58 1016.82 1017.02 1017.26 1017.46 1017.66 1017.78 1017.90 1018.06 1018.26 1018.42 1018.58 1018.70 1018.82 1018.94 1019.02 1019.14 1019.26 1019.30 1019.38 1019.46 1019.54 1019.58 1019.58 1019.62 1019.62 1019.62 1019.70 1019.70 1019.70 1019.70 1019.70 1019.70 1019.74 1019.82 1019.82 1019.82 1019.78 1019.78 1019.74 1019.70 1019.66 1019.58 1019.58 1019.58 1019.58 1019.54 1019.46
1011.38 1011.66 1011.90 1012.14 1012.30 1012.54 1012.74 1012.94 1013.14 1013.34 1013.58 1013.82 1014.02 1014.34 1014.66 1014.98 1015.22 1015.42 1015.70 1015.98 1016.34 1016.62 1016.86 1017.06 1017.26 1017.46 1017.66 1017.78 1017.90 1018.10 1018.30 1018.46 1018.62 1018.70 1018.82 1018.94 1019.06 1019.14 1019.26 1019.34 1019.42 1019.46 1019.54 1019.58 1019.58 1019.62 1019.62 1019.58 1019.62 1019.66 1019.66 1019.70 1019.70 1019.70 1019.74 1019.82 1019.78 1019.70 1019.66 1019.62 1019.62 1019.62 1019.62 1019.58 1019.58 1019.58 1019.54 1019.46 1019.42
1011.34 1011.58 1011.86 1012.10 1012.34 1012.58 1012.74 1012.98 1013.22 1013.42 1013.62 1013.86 1014.06 1014.30 1014.62 1014.90 1015.18 1015.42 1015.70 1016.02 1016.38 1016.70 1016.94 1017.14 1017.30 1017.42 1017.58 1017.74 1017.90 1018.10 1018.30 1018.42 1018.58 1018.70 1018.78 1018.90 1019.06 1019.14 1019.26 1019.34 1019.42 1019.46 1019.50 1019.54 1019.58 1019.58 1019.58 1019.58 1019.58 1019.58 1019.66 1019.70 1019.66 1019.70 1019.74 1019.78 1019.74 1019.62 1019.54 1019.46 1019.46 1019.54 1019.58 1019.54 1019.54 1019.54 1019.50 1019.42 1019.38
1011.30 1011.58 1011.82 1012.10 1012.38 1012.58 1012.78 1013.02 1013.26 1013.42 1013.62 1013.86 1014.14 1014.42 1014.66 1014.90 1015.18 1015.50 1015.82 1016.14 1016.42 1016.70 1016.94 1017.14 1017.30 1017.42 1017.58 1017.70 1017.90 1018.10 1018.30 1018.42 1018.58 1018.70 1018.78 1018.90 1019.02 1019.14 1019.26 1019.34 1019.42 1019.42 1019.46 1019.50 1019.54 1019.54 1019.54 1019.58 1019.58 1019.54 1019.54 1019.58 1019.58 1019.58 1019.62 1019.70 1019.66 1019.58 1019.46 1019.38 1019.42 1019.46 1019.50 1019.50 1019.50 1019.50 1019.42 1019.38 1019.34
1011.42 1011.70 1011.94 1012.22 1012.42 1012.66 1012.86 1013.06 1013.26 1013.46 1013.70 1013.94 1014.22 1014.50 1014.74 1015.02 1015.30 1015.58 1015.90 1016.18 1016.46 1016.70 1016.90 1017.14 1017.30 1017.42 1017.58 1017.70 1017.90 1018.10 1018.30 1018.42 1018.58 1018.70 1018.78 1018.90 1019.02 1019.10 1019.22 1019.30 1019.38 1019.42 1019.46 1019.50 1019.50 1019.50 1019.54 1019.54 1019.54 1019.50 1019.50 1019.54 1019.54 1019.50 1019.54 1019.62 1019.58 1019.54 1019.42 1019.38 1019.38 1019.42 1019.42 1019.46 1019.42 1019.42 1019.38 1019.34 1019.30
1011.50 1011.82 1012.06 1012.30 1012.58 1012.78 1012.98 1013.18 1013.38 1013.58 1013.82 1014.10 1014.38 1014.70 1014.98 1015.22 1015.46 1015.70 1015.98 1016.30 1016.54 1016.74 1016.94 1017.14 1017.30 1017.46 1017.62 1017.74 1017.94 1018.14 1018.30 1018.42 1018.58 1018.70 1018.78 1018.86 1019.02 1019.10 1019.18 1019.26 1019.30 1019.38 1019.42 1019.46 1019.50 1019.50 1019.50 1019.50 1019.46 1019.42 1019.42 1019.46 1019.42 1019.42 1019.50 1019.58 1019.50 1019.46 1019.42 1019.34 1019.34 1019.34 1019.38 1019.38 1019.34 1019.30 1019.30 1019.26 1019.22
1011.54 1011.86 1012.14 1012.38 1012.62 1012.86 1013.06 1013.30 1013.54 1013.78 1013.98 1014.30 1014.58 1014.86 1015.14 1015.42 1015.66 1015.86 1016.14 1016.38 1016.54 1016.74 1016.94 1017.14 1017.30 1017.46 1017.62 1017.82 1017.98 1018.14 1018.30 1018.42 1018.58 1018.70 1018.78 1018.90 1019.02 1019.10 1019.18 1019.26 1019.30 1019.30 1019.38 1019.42 1019.46 1019.50 1019.46 1019.42 1019.38 1019.34 1019.38 1019.42 1019.42 1019.38 1019.42 1019.42 1019.42 1019.42 1019.38 1019.30 1019.30 1019.34 1019.30 1019.26 1019.26 1019.22 1019.18 1019.14 1019.14
1011.62 1011.94 1012.22 1012.46 1012.70 1012.94 1013.14 1013.42 1013.70 1013.98 1014.26 1014.54 1014.82 1015.06 1015.30 1015.58 1015.82 1016.02 1016.26 1016.42 1016.58 1016.78 1017.02 1017.22 1017.34 1017.50 1017.70 1017.86 1018.06 1018.22 1018.38 1018.50 1018.58 1018.70 1018.86 1018.98 1019.06 1019.14 1019.22 1019.26 1019.30 1019.34 1019.38 1019.42 1019.46 1019.46 1019.42 1019.38 1019.34 1019.30 1019.30 1019.30 1019.30 1019.26 1019.30 1019.30 1019.34 1019.30 1019.30 1019.30 1019.26 1019.26 1019.18 1019.14 1019.14 1019.14 1019.10 1019.10 1019.10
1011.74 1012.06 1012.34 1012.62 1012.86 1013.06 1013.30 1013.58 1013.86 1014.14 1014.42 1014.70 1014.98 1015.22 1015.50 1015.78 1015.98 1016.14 1016.30 1016.42 1016.62 1016.86 1017.10 1017.30 1017.46 1017.62 1017.78 1017.98 1018.14 1018.30 1018.42 1018.58 1018.66 1018.74 1018.86 1019.02 1019.10 1019.18 1019.26 1019.30 1019.34 1019.38 1019.42 1019.42 1019.46 1019.42 1019.42 1019.38 1019.34 1019.30 1019.26 1019.26 1019.22 1019.18 1019.22 1019.30 1019.30 1019.26 1019.18 1019.18 1019.14 1019.10 1019.06 1019.02 1019.02 1019.06 1019.06 1019.10 1019.06
1011.90 1012.14 1012.42 1012.70 1012.98 1013.18 1013.42 1013.70 1013.98 1014.30 1014.58 1014.86 1015.14 1015.42 1015.70 1015.94 1016.14 1016.30 1016.38 1016.54 1016.70 1016.98 1017.18 1017.42 1017.58 1017.74 1017.94 1018.10 1018.30 1018.42 1018.50 1018.58 1018.70 1018.78 1018.90 1019.02 1019.10 1019.14 1019.22 1019.30 1019.34 1019.34 1019.38 1019.42 1019.42 1019.42 1019.42 1019.34 1019.30 1019.30 1019.26 1019.22 1019.18 1019.18 1019.18 1019.22 1019.22 1019.18 1019.14 1019.10 1019.06 1019.02 1019.02 1018.98 1018.98 1019.02 1019.02 1019.02 1018.94
1012.02 1012.30 1012.58 1012.82 1013.06 1013.30 1013.54 1013.82 1014.14 1014.42 1014.74 1015.02 1015.30 1015.54 1015.78 1016.02 1016.22 1016.38 1016.50 1016.70 1016.86 1017.10 1017.30 1017.46 1017.70 1017.94 1018.14 1018.26 1018.38 1018.50 1018.58 1018.66 1018.70 1018.82 1018.94 1019.02 1019.10 1019.14 1019.22 1019.30 1019.30 1019.34 1019.34 1019.38 1019.42 1019.42 1019.38 1019.34 1019.30 1019.30 1019.26 1019.22 1019.14 1019.14 1019.14 1019.14 1019.14 1019.14 1019.10 1019.06 1019.02 1018.98 1018.94 1018.90 1018.90 1018.90 1018.90 1018.86 1018.86
1012.14 1012.42 1012.66 1012.90 1013.14 1013.42 1013.66 1013.94 1014.26 1014.58 1014.90 1015.18 1015.42 1015.66 1015.86 1016.06 1016.30 1016.50 1016.62 1016.82 1017.02 1017.22 1017.42 1017.58 1017.86 1018.10 1018.30 1018.42 1018.50 1018.58 1018.62 1018.70 1018.78 1018.86 1018.94 1019.02 1019.10 1019.14 1019.22 1019.26 1019.30 1019.30 1019.34 1019.38 1019.34 1019.34 1019.34 1019.34 1019.30 1019.30 1019.26 1019.22 1019.18 1019.14 1019.10 1019.10 1019.02 1019.02 1019.02 1019.02 1018.98 1018.90 1018.86 1018.86 1018.82 1018.86 1018.86 1018.82 1018.78
1012.18 1012.50 1012.74 1013.02 1013.26 1013.54 1013.82 1014.10 1014.42 1014.70 1015.02 1015.30 1015.54 1015.70 1015.94 1016.14 1016.38 1016.58 1016.78 1016.94 1017.14 1017.34 1017.58 1017.74 1017.98 1018.14 1018.34 1018.50 1018.58 1018.66 1018.70 1018.74 1018.82 1018.86 1018.94 1019.02 1019.10 1019.14 1019.22 1019.26 1019.30 1019.34 1019.38 1019.34 1019.30 1019.30 1019.30 1019.30 1019.30 1019.30 1019.30 1019.22 1019.18 1019.14 1019.06 1019.02 1018.98 1018.90 1018.90 1018.90 1018.86 1018.86 1018.82 1018.82 1018.82 1018.78 1018.78 1018.74 1018.70
1012.30 1012.58 1012.86 1013.14 1013.42 1013.70 1013.98 1014.30 1014.58 1014.86 1015.14 1015.42 1015.62 1015.86 1016.02 1016.26 1016.46 1016.70 1016.90 1017.10 1017.26 1017.42 1017.62 1017.86 1018.06 1018.26 1018.42 1018.54 1018.62 1018.70 1018.70 1018.74 1018.82 1018.86 1018.98 1019.02 1019.14 1019.18 1019.26 1019.30 1019.38 1019.42 1019.42 1019.38 1019.30 1019.30 1019.26 1019.22 1019.26 1019.22 1019.18 1019.18 1019.14 1019.06 1019.02 1018.94 1018.90 1018.86 1018.86 1018.82 1018.82 1018.78 1018.74 1018.74 1018.78 1018.74 1018.70 1018.66 1018.62
1012.38 1012.70 1013.02 1013.30 1013.62 1013.90 1014.22 1014.46 1014.74 1015.02 1015.30 1015.50 1015.70 1015.94 1016.18 1016.42 1016.58 1016.82 1017.02 1017.26 1017.42 1017.58 1017.70 1017.94 1018.14 1018.30 1018.42 1018.58 1018.66 1018.70 1018.74 1018.86 1018.86 1018.98 1019.06 1019.14 1019.22 1019.30 1019.30 1019.38 1019.42 1019.42 1019.42 1019.38 1019.34 1019.30 1019.30 1019.22 1019.22 1019.18 1019.14 1019.06 1019.02 1018.98 1018.94 1018.86 1018.86 1018.78 1018.74 1018.74 1018.70 1018.70 1018.70 1018.70 1018.70 1018.70 1018.66 1018.58 1018.58
1012.50 1012.82 1013.18 1013.54 1013.86 1014.14 1014.42 1014.70 1014.94 1015.18 1015.42 1015.66 1015.86 1016.06 1016.30 1016.54 1016.70 1016.90 1017.14 1017.38 1017.58 1017.70 1017.86 1018.02 1018.18 1018.38 1018.50 1018.58 1018.70 1018.74 1018.86 1018.94 1019.02 1019.06 1019.14 1019.22 1019.30 1019.34 1019.38 1019.42 1019.42 1019.42 1019.38 1019.34 1019.34 1019.30 1019.30 1019.22 1019.18 1019.14 1019.06 1019.02 1018.94 1018.86 1018.86 1018.78 1018.74 1018.70 1018.70 1018.66 1018.62 1018.58 1018.58 1018.62 1018.62 1018.62 1018.62 1018.58 1018.50
1012.70 1013.02 1013.38 1013.70 1014.06 1014.34 1014.58 1014.86 1015.10 1015.34 1015.58 1015.82 1016.02 1016.26 1016.42 1016.66 1016.86 1017.10 1017.30 1017.50 1017.66 1017.82 1017.98 1018.14 1018.30 1018.42 1018.54 1018.66 1018.70 1018.82 1018.90 1019.02 1019.10 1019.18 1019.26 1019.30 1019.34 1019.38 1019.42 1019.42 1019.42 1019.38 1019.34 1019.30 1019.30 1019.30 1019.26 1019.18 1019.14 1019.10 1019.02 1018.94 1018.86 1018.78 1018.74 1018.70 1018.66 1018.62 1018.58 1018.58 1018.50 1018.50 1018.50 1018.54 1018.58 1018.58 1018.50 1018.46 1018.38
1012.94 1013.30 1013.62 1013.98 1014.26 1014.54 1014.78 1015.02 1015.30 1015.50 1015.70 1015.94 1016.18 1016.42 1016.62 1016.82 1017.02 1017.26 1017.46 1017.62 1017.78 1017.94 1018.10 1018.26 1018.42 1018.50 1018.58 1018.70 1018.78 1018.90 1019.02 1019.10 1019.18 1019.26 1019.30 1019.34 1019.42 1019.46 1019.50 1019.50 1019.42 1019.38 1019.30 1019.30 1019.30 1019.26 1019.22 1019.14 1019.10 1019.02 1018.94 1018.86 1018.74 1018.70 1018.66 1018.62 1018.58 1018.54 1018.46 1018.42 1018.38 1018.38 1018.42 1018.42 1018.42 1018.42 1018.38 1018.30 1018.26
1013.18 1013.54 1013.86 1014.22 1014.50 1014.70 1014.98 1015.22 1015.42 1015.66 1015.86 1016.14 1016.38 1016.58 1016.82 1017.02 1017.22 1017.42 1017.62 1017.78 1017.90 1018.06 1018.26 1018.38 1018.50 1018.62 1018.74 1018.86 1018.90 1018.98 1019.10 1019.18 1019.30 1019.34 1019.42 1019.42 1019.46 1019.50 1019.50 1019.50 1019.42 1019.34 1019.30 1019.26 1019.30 1019.30 1019.22 1019.10 1019.02 1018.94 1018.82 1018.70 1018.62 1018.58 1018.58 1018.54 1018.46 1018.42 1018.38 1018.30 1018.30 1018.26 1018.26 1018.26 1018.26 1018.26 1018.22 1018.14 1018.10
1013.38 1013.70 1014.10 1014.42 1014.70 1014.90 1015.14 1015.34 1015.58 1015.78 1016.06 1016.30 1016.54 1016.78 1017.02 1017.22 1017.42 1017.58 1017.74 1017.90 1018.06 1018.22 1018.38 1018.50 1018.66 1018.78 1018.90 1018.94 1019.02 1019.06 1019.14 1019.22 1019.30 1019.38 1019.42 1019.46 1019.46 1019.46 1019.42 1019.42 1019.30 1019.30 1019.30 1019.30 1019.30 1019.34 1019.30 1019.14 1019.02 1018.82 1018.70 1018.58 1018.50 1018.42 1018.42 1018.42 1018.42 1018.38 1018.30 1018.26 1018.22 1018.18 1018.14 1018.14 1018.14 1018.10 1018.02 1017.98 1017.94
1013.58 1013.90 1014.22 1014.54 1014.78 1015.02 1015.26 1015.46 1015.70 1015.98 1016.26 1016.50 1016.74 1016.98 1017.18 1017.38 1017.58 1017.70 1017.90 1018.02 1018.22 1018.38 1018.54 1018.66 1018.82 1018.94 1019.02 1019.06 1019.14 1019.18 1019.22 1019.26 1019.30 1019.34 1019.42 1019.42 1019.42 1019.42 1019.38 1019.30 1019.30 1019.26 1019.30 1019.34 1019.42 1019.46 1019.42 1019.26 1019.10 1018.94 1018.74 1018.62 1018.54 1018.42 1018.38 1018.34 1018.30 1018.30 1018.26 1018.22 1018.18 1018.14 1018.14 1018.06 1017.98 1017.94 1017.86 1017.82 1017.74
1013.78 1014.06 1014.34 1014.62 1014.86 1015.14 1015.42 1015.62 1015.86 1016.14 1016.42 1016.66 1016.90 1017.10 1017.30 1017.54 1017.70 1017.86 1017.98 1018.18 1018.34 1018.50 1018.66 1018.82 1018.94 1019.02 1019.10 1019.14 1019.22 1019.30 1019.30 1019.34 1019.38 1019.42 1019.42 1019.42 1019.42 1019.38 1019.34 1019.30 1019.26 1019.26 1019.30 1019.42 1019.46 1019.42 1019.34 1019.26 1019.14 1019.02 1018.90 1018.70 1018.58 1018.46 1018.34 1018.26 1018.22 1018.22 1018.22 1018.18 1018.18 1018.14 1018.06 1017.94 1017.86 1017.78 1017.70 1017.70 1017.58
1013.98 1014.26 1014.50 1014.74 1015.02 1015.30 1015.58 1015.86 1016.14 1016.38 1016.58 1016.86 1017.02 1017.26 1017.42 1017.62 1017.82 1017.98 1018.10 1018.30 1018.46 1018.62 1018.74 1018.90 1019.02 1019.06 1019.14 1019.22 1019.30 1019.34 1019.38 1019.42 1019.46 1019.50 1019.50 1019.46 1019.42 1019.42 1019.34 1019.30 1019.26 1019.30 1019.38 1019.42 1019.42 1019.38 1019.30 1019.18 1019.10 1019.02 1018.94 1018.82 1018.66 1018.54 1018.38 1018.26 1018.18 1018.14 1018.14 1018.14 1018.14 1018.06 1017.98 1017.86 1017.74 1017.66 1017.58 1017.54 1017.50
1014.14 1014.38 1014.66 1014.98 1015.22 1015.50 1015.82 1016.06 1016.30 1016.54 1016.74 1016.98 1017.18 1017.38 1017.58 1017.74 1017.90 1018.06 1018.26 1018.42 1018.58 1018.70 1018.82 1018.94 1019.02 1019.14 1019.22 1019.30 1019.30 1019.38 1019.46 1019.50 1019.54 1019.54 1019.54 1019.46 1019.42 1019.38 1019.30 1019.26 1019.26 1019.30 1019.42 1019.42 1019.42 1019.34 1019.26 1019.14 1019.06 1019.02 1018.94 1018.86 1018.70 1018.58 1018.42 1018.30 1018.14 1018.10 1018.06 1017.98 1017.98 1017.90 1017.86 1017.74 1017.66 1017.58 1017.46 1017.38 1017.34
1014.30 1014.58 1014.86 1015.14 1015.42 1015.70 1015.98 1016.26 1016.46 1016.70 1016.90 1017.14 1017.30 1017.50 1017.70 1017.86 1018.02 1018.18 1018.34 1018.50 1018.62 1018.74 1018.86 1018.98 1019.10 1019.18 1019.26 1019.30 1019.38 1019.46 1019.54 1019.58 1019.58 1019.58 1019.54 1019.46 1019.42 1019.34 1019.30 1019.30 1019.30 1019.30 1019.42 1019.46 1019.42 1019.30 1019.22 1019.14 1019.06 1018.98 1018.94 1018.86 1018.78 1018.58 1018.42 1018.22 1018.10 1018.02 1017.98 1017.90 1017.86 1017.82 1017.70 1017.66 1017.58 1017.54 1017.42 1017.34 1017.30
1014.46 1014.74 1015.02 1015.30 1015.62 1015.90 1016.18 1016.42 1016.62 1016.86 1017.02 1017.26 1017.46 1017.62 1017.78 1017.98 1018.14 1018.30 1018.42 1018.58 1018.70 1018.78 1018.90 1019.02 1019.14 1019.22 1019.30 1019.38 1019.42 1019.46 1019.54 1019.58 1019.58 1019.54 1019.50 1019.42 1019.34 1019.30 1019.30 1019.30 1019.30 1019.30 1019.42 1019.42 1019.38 1019.30 1019.22 1019.10 1019.02 1019.02 1018.94 1018.86 1018.78 1018.58 1018.38 1018.18 1018.06 1017.98 1017.90 1017.86 1017.82 1017.74 1017.70 1017.66 1017.58 1017.50 1017.42 1017.30 1017.22
1014.70 1014.94 1015.26 1015.54 1015.86 1016.10 1016.34 1016.58 1016.82 1017.02 1017.18 1017.34 1017.58 1017.70 1017.86 1018.06 1018.26 1018.42 1018.58 1018.66 1018.82 1018.98 1019.06 1019.14 1019.26 1019.30 1019.38 1019.42 1019.42 1019.42 1019.50 1019.54 1019.50 1019.46 1019.42 1019.38 1019.34 1019.34 1019.30 1019.30 1019.30 1019.34 1019.38 1019.42 1019.34 1019.30 1019.18 1019.10 1019.02 1019.02 1018.90 1018.86 1018.70 1018.54 1018.34 1018.14 1017.98 1017.90 1017.86 1017.82 1017.74 1017.70 1017.66 1017.58 1017.54 1017.42 1017.38 1017.30 1017.14
1014.94 1015.18 1015.42 1015.70 1015.98 1016.30 1016.54 1016.78 1016.98 1017.14 1017.30 1017.50 1017.70 1017.86 1018.02 1018.22 1018.42 1018.58 1018.70 1018.86 1018.98 1019.10 1019.18 1019.26 1019.30 1019.38 1019.42 1019.42 1019.46 1019.46 1019.46 1019.46 1019.46 1019.46 1019.42 1019.46 1019.42 1019.38 1019.30 1019.30 1019.30 1019.30 1019.38 1019.42 1019.34 1019.30 1019.18 1019.10 1019.02 1018.94 1018.86 1018.82 1018.66 1018.46 1018.30 1018.10 1017.98 1017.86 1017.78 1017.74 1017.70 1017.70 1017.66 1017.58 1017.46 1017.42 1017.34 1017.26 1017.14
1015.14 1015.42 1015.66 1015.90 1016.14 1016.42 1016.66 1016.90 1017.10 1017.30 1017.46 1017.66 1017.86 1018.02 1018.22 1018.38 1018.54 1018.70 1018.86 1019.02 1019.14 1019.22 1019.30 1019.30 1019.34 1019.38 1019.38 1019.42 1019.42 1019.42 1019.46 1019.46 1019.46 1019.50 1019.50 1019.46 1019.42 1019.38 1019.30 1019.26 1019.22 1019.30 1019.38 1019.42 1019.34 1019.26 1019.14 1019.10 1019.02 1018.90 1018.82 1018.74 1018.58 1018.38 1018.14 1017.98 1017.86 1017.78 1017.70 1017.70 1017.62 1017.58 1017.58 1017.54 1017.46 1017.38 1017.30 1017.22 1017.10
1015.34 1015.58 1015.86 1016.10 1016.34 1016.58 1016.82 1017.02 1017.26 1017.42 1017.62 1017.82 1017.98 1018.18 1018.38 1018.54 1018.70 1018.86 1019.02 1019.14 1019.26 1019.30 1019.34 1019.38 1019.42 1019.42 1019.46 1019.46 1019.46 1019.42 1019.42 1019.42 1019.42 1019.42 1019.46 1019.46 1019.42 1019.34 1019.30 1019.22 1019.22 1019.30 1019.42 1019.42 1019.34 1019.26 1019.14 1019.10 1018.98 1018.86 1018.78 1018.62 1018.46 1018.22 1017.98 1017.86 1017.74 1017.70 1017.62 1017.58 1017.54 1017.50 1017.46 1017.42 1017.38 1017.30 1017.22 1017.14 1017.02
1015.54 1015.74 1016.02 1016.30 1016.54 1016.74 1017.02 1017.18 1017.42 1017.58 1017.78 1017.98 1018.14 1018.34 1018.54 1018.70 1018.86 1019.02 1019.18 1019.30 1019.38 1019.42 1019.50 1019.54 1019.58 1019.58 1019.58 1019.58 1019.58 1019.50 1019.46 1019.46 1019.42 1019.42 1019.42 1019.42 1019.38 1019.30 1019.26 1019.22 1019.26 1019.34 1019.42 1019.42 1019.34 1019.26 1019.14 1019.06 1018.98 1018.86 1018.70 1018.54 1018.30 1018.10 1017.86 1017.70 1017.62 1017.54 1017.46 1017.42 1017.42 1017.38 1017.30 1017.30 1017.26 1017.18 1017.10 1017.02 1016.90
1015.70 1015.90 1016.14 1016.42 1016.70 1016.94 1017.14 1017.34 1017.54 1017.70 1017.90 1018.10 1018.30 1018.50 1018.70 1018.86 1019.02 1019.14 1019.30 1019.42 1019.46 1019.46 1019.54 1019.58 1019.58 1019.58 1019.58 1019.54 1019.54 1019.50 1019.46 1019.46 1019.42 1019.42 1019.42 1019.42 1019.38 1019.30 1019.26 1019.22 1019.22 1019.30 1019.38 1019.42 1019.34 1019.30 1019.18 1019.06 1018.94 1018.82 1018.66 1018.42 1018.22 1017.98 1017.82 1017.66 1017.54 1017.42 1017.38 1017.30 1017.26 1017.22 1017.14 1017.14 1017.10 1017.02 1016.98 1016.86 1016.86
1015.94 1016.14 1016.34 1016.62 1016.86 1017.10 1017.30 1017.46 1017.66 1017.86 1018.06 1018.26 1018.46 1018.66 1018.82 1018.98 1019.14 1019.30 1019.38 1019.42 1019.42 1019.42 1019.46 1019.50 1019.54 1019.50 1019.50 1019.46 1019.46 1019.50 1019.54 1019.54 1019.46 1019.42 1019.42 1019.42 1019.38 1019.34 1019.30 1019.22 1019.22 1019.26 1019.34 1019.38 1019.34 1019.26 1019.14 1019.02 1018.86 1018.74 1018.58 1018.38 1018.14 1017.90 1017.74 1017.58 1017.50 1017.38 1017.30 1017.18 1017.14 1017.10 1017.06 1017.02 1016.94 1016.90 1016.86 1016.86 1016.86
1016.14 1016.34 1016.54 1016.74 1017.02 1017.22 1017.42 1017.62 1017.78 1017.98 1018.22 1018.42 1018.62 1018.78 1018.94 1019.10 1019.22 1019.30 1019.38 1019.38 1019.38 1019.42 1019.42 1019.46 1019.50 1019.54 1019.58 1019.54 1019.50 1019.54 1019.58 1019.58 1019.54 1019.46 1019.42 1019.42 1019.38 1019.38 1019.30 1019.26 1019.22 1019.26 1019.30 1019.34 1019.30 1019.22 1019.10 1018.98 1018.86 1018.70 1018.58 1018.34 1018.10 1017.86 1017.70 1017.58 1017.42 1017.34 1017.26 1017.14 1017.06 1017.02 1017.02 1016.94 1016.86 1016.82 1016.86 1016.90 1016.90
1016.34 1016.50 1016.70 1016.86 1017.10 1017.30 1017.54 1017.74 1017.94 1018.14 1018.34 1018.54 1018.70 1018.86 1019.02 1019.14 1019.30 1019.38 1019.42 1019.42 1019.42 1019.42 1019.42 1019.42 1019.50 1019.54 1019.58 1019.54 1019.46 1019.46 1019.54 1019.54 1019.58 1019.54 1019.46 1019.42 1019.42 1019.42 1019.42 1019.30 1019.22 1019.22 1019.26 1019.30 1019.26 1019.14 1019.06 1018.94 1018.82 1018.70 1018.54 1018.34 1018.10 1017.90 1017.70 1017.58 1017.42 1017.30 1017.22 1017.14 1017.02 1016.98 1016.90 1016.90 1016.86 1016.82 1016.82 1016.82 1016.70
1016.50 1016.70 1016.86 1017.02 1017.26 1017.46 1017.66 1017.86 1018.06 1018.30 1018.46 1018.62 1018.82 1018.94 1019.10 1019.26 1019.34 1019.46 1019.54 1019.54 1019.50 1019.46 1019.42 1019.46 1019.54 1019.58 1019.58 1019.54 1019.46 1019.46 1019.42 1019.46 1019.54 1019.54 1019.54 1019.54 1019.54 1019.58 1019.54 1019.38 1019.26 1019.22 1019.18 1019.22 1019.18 1019.10 1019.02 1018.86 1018.74 1018.62 1018.50 1018.30 1018.10 1017.90 1017.70 1017.54 1017.38 1017.30 1017.18 1017.10 1017.02 1016.94 1016.86 1016.86 1016.86 1016.82 1016.70 1016.54 1016.42
1016.70 1016.86 1017.02 1017.22 1017.42 1017.58 1017.82 1018.02 1018.26 1018.46 1018.66 1018.78 1018.94 1019.06 1019.22 1019.38 1019.46 1019.54 1019.58 1019.58 1019.54 1019.54 1019.50 1019.54 1019.58 1019.58 1019.58 1019.58 1019.50 1019.46 1019.42 1019.42 1019.46 1019.50 1019.54 1019.58 1019.54 1019.54 1019.46 1019.38 1019.30 1019.18 1019.14 1019.10 1019.10 1019.02 1018.94 1018.82 1018.70 1018.58 1018.46 1018.30 1018.14 1017.98 1017.74 1017.54 1017.38 1017.26 1017.18 1017.14 1017.10 1017.02 1016.86 1016.78 1016.74 1016.70 1016.54 1016.34 1016.18
Wind_Speed
11 10 10 10 10 9 9 8 8 8 8 8 9 9 9 8 8 8 7 7 7 7 7 7 7 8 9 10 10 10 10 10 10 9 9 9 8 8 8 7 7 7 6 6 6 5 4 4 3 2 2 1 2 2 2 2 2 2 3 3 3 3 3 4 4 4 4 4 3
12 12 12 11 11 10 9 8 8 8 8 8 8 8 8 8 8 8 8 7 7 7 7 7 8 9 10 11 11 10 10 10 10 10 9 9 9 8 8 7 7 6 6 6 5 4 4 3 3 2 2 2 2 2 2 2 2 3 3 3 3 3 3 4 4 4 4 4 4
12 12 12 12 12 11 9 9 9 9 10 8 8 8 8 7 7 7 7 8 8 8 8 7 8 10 11 11 10 10 10 10 10 10 9 8 8 8 7 7 7 6 6 5 5 4 3 3 2 2 2 2 2 2 2 2 2 3 3 3 2 2 3 3 3 3 3 3 4
13 13 13 13 14 14 12 10 11 11 11 9 9 8 8 7 7 7 8 9 9 9 8 8 9 10 10 10 10 10 10 10 10 10 9 8 8 8 8 7 7 6 6 5 5 4 4 3 2 2 2 2 2 2 2 2 3 3 2 2 2 2 3 3 3 3 3 3 4
13 13 12 13 15 14 13 11 12 12 11 9 8 8 8 7 7 8 8 9 8 8 9 10 9 9 9 10 11 11 11 10 10 9 8 8 8 8 7 7 7 6 5 5 5 4 4 3 2 2 2 2 2 2 2 2 3 3 2 2 2 2 2 3 2 2 2 3 3
13 13 13 13 14 13 11 11 13 12 10 9 10 9 9 8 8 8 9 9 9 10 11 11 10 10 10 11 11 11 10 10 9 8 8 8 8 7 7 7 6 6 5 5 5 4 4 3 2 2 2 2 2 2 2 2 3 3 3 2 2 2 2 3 2 2 3 4 4
14 14 14 14 14 13 12 12 12 11 11 10 11 12 11 10 10 11 11 11 11 11 11 10 10 10 11 11 11 10 10 9 8 8 8 8 7 7 7 6 6 6 5 5 5 4 4 3 2 2 2 2 2 2 3 3 3 3 3 3 2 2 2 3 3 3 3 5 5
13 14 14 14 14 14 14 13 12 11 10 10 11 13 14 13 14 14 13 12 11 10 9 9 10 11 11 11 10 10 10 9 9 8 8 7 8 7 7 6 6 5 5 5 4 4 3 3 2 2 2 2 2 3 3 3 3 3 3 3 2 2 2 3 3 3 4 5 6
12 12 12 13 13 14 14 14 13 12 11 11 12 14 14 14 15 14 13 11 10 10 10 9 11 12 12 11 11 10 9 9 9 8 8 7 7 7 7 6 6 5 5 4 4 4 3 3 2 2 2 2 2 2 2 2 3 3 3 3 3 3 3 3 4 4 5 5 6
12 12 12 13 13 14 14 14 13 13 13 13 14 14 14 14 14 13 11 10 10 10 10 10 12 12 12 11 10 10 9 8 8 8 8 7 7 7 6 5 5 5 5 4 4 4 4 3 3 3 3 3 3 3 2 3 3 3 3 3 3 4 4 4 5 5 5 5 6
14 13 13 13 14 14 14 13 12 12 13 13 14 14 14 13 13 12 11 10 11 12 12 11 12 12 11 10 10 9 8 7 7 7 7 7 6 6 5 5 5 5 4 4 3 3 3 3 3 3 3 3 3 3 3 3 3 4 4 4 4 5 5 5 5 5 5 5 6
14 14 14 13 14 14 14 13 12 12 13 14 14 14 13 12 12 12 12 12 12 12 12 11 11 11 10 9 9 8 8 7 7 7 7 7 6 6 5 5 5 4 4 4 3 3 3 3 3 3 3 3 3 3 3 3 3 4 5 5 5 5 6 6 6 5 5 5 6
14 14 14 14 14 14 14 13 12 12 13 13 13 12 12 11 12 12 13 13 13 12 11 11 10 10 9 8 8 8 7 7 7 7 7 6 6 6 5 5 5 4 4 4 3 3 3 3 3 3 3 3 3 3 3 3 4 5 5 6 6 6 6 6 6 6 6 6 7
15 15 15 15 15 14 13 12 11 11 12 13 12 12 11 11 12 12 12 12 12 11 10 10 9 8 8 8 8 8 7 7 7 7 7 6 6 5 5 5 4 4 4 3 3 3 3 3 3 3 3 4 4 3 3 4 4 5 5 6 6 7 7 7 7 6 7 7 7
15 15 15 15 14 13 12 12 11 11 12 12 12 11 11 10 11 11 11 11 11 11 10 9 8 8 8 8 8 8 8 7 7 7 7 6 6 5 5 5 4 4 4 3 3 3 4 3 3 3 3 4 4 4 4 5 5 5 6 6 7 7 7 7 7 7 7 7 8
15 15 15 15 14 13 12 11 10 10 11 11 11 11 11 10 10 10 11 11 10 9 9 9 9 8 8 8 8 8 7 7 7 7 6 6 6 5 5 4 4 4 3 3 3 3 3 3 3 3 4 4 4 5 5 5 5 6 6 7 7 7 7 7 7 7 7 8 8
15 15 15 14 14 13 12 11 10 10 11 12 12 11 10 10 9 10 10 10 9 9 9 10 9 8 8 7 7 7 7 6 6 6 6 5 5 5 4 4 4 3 3 3 3 3 3 3 3 3 4 4 5 5 5 6 6 6 7 7 7 7 7 7 7 8 8 8 9
15 15 15 14 14 14 13 12 12 12 12 12 12 11 10 10 10 10 10 10 10 10 11 10 9 8 8 8 7 6 5 6 6 5 5 5 4 4 4 3 3 3 3 3 3 3 3 3 3 4 4 5 5 5 6 6 6 7 7 7 7 8 8 7 7 7 8 8 9
15 15 14 14 14 14 13 13 13 13 13 12 12 11 11 11 11 11 10 10 11 11 11 10 9 8 8 8 7 6 5 5 5 5 5 4 4 4 3 3 3 2 2 3 3 3 3 4 4 4 5 5 5 6 6 7 7 7 7 8 8 8 8 8 8 8 8 8 9
15 14 14 14 14 14 14 14 14 13 13 12 12 12 12 12 12 12 11 11 11 11 11 10 9 8 8 8 7 6 5 4 5 5 4 4 3 3 3 2 2 2 2 3 3 3 3 4 4 5 5 6 6 6 7 7 7 7 8 8 8 8 8 8 8 8 8 9 9
14 14 14 14 14 14 14 14 14 13 13 13 13 13 13 12 12 12 12 11 11 10 10 9 9 9 8 7 7 6 5 4 4 4 4 4 3 3 2 2 2 2 2 2 3 3 4 4 5 5 6 6 6 7 7 7 7 8 8 8 8 8 8 8 8 9 9 9 10
14 14 14 14 14 14 14 14 14 14 13 13 13 13 13 12 12 12 11 11 10 10 9 9 9 8 8 7 7 6 5 4 4 4 3 3 3 2 2 1 1 2 2 2 3 3 4 4 5 6 6 6 7 7 7 7 8 8 9 9 9 9 9 9 9 9 9 10 10
14 14 14 14 14 14 14 14 14 14 14 13 13 13 12 12 12 11 11 10 10 9 9 8 8 7 7 6 6 6 5 5 4 4 3 3 2 2 1 1 1 2 2 2 2 3 4 4 5 6 6 7 7 7 7 8 8 8 9 9 9 9 9 9 9 9 9 10 10
15 14 13 13 14 15 15 14 14 14 14 13 13 13 12 12 12 11 10 10 9 9 8 7 7 6 6 6 6 5 5 5 5 4 3 3 2 2 1 2 1 1 1 2 2 3 4 5 6 6 7 7 7 7 7 7 8 8 9 10 10 10 9 9 9 10 10 10 10
15 15 14 14 15 15 14 14 14 14 14 13 13 13 12 12 11 10 10 10 9 9 8 7 7 6 6 5 5 5 4 4 4 4 3 2 2 1 1 1 1 1 1 1 3 4 6 6 6 7 7 7 7 8 8 8 8 8 9 9 9 9 10 10 10 10 10 11 10
15 15 15 15 15 15 15 14 14 14 14 13 13 12 12 11 10 10 10 9 9 8 8 7 7 6 5 5 5 4 4 3 3 3 2 2 1 0 1 1 1 1 1 2 4 5 7 8 8 8 8 7 8 8 8 8 8 8 8 9 9 9 9 10 10 10 10 10 11
15 15 15 15 15 15 15 14 14 14 13 13 12 12 11 10 10 10 10 9 9 8 7 6 6 5 5 4 4 4 3 3 2 2 1 1 0 0 1 1 1 1 2 3 5 7 8 8 9 9 9 8 8 8 8 8 8 8 8 8 8 9 9 10 10 11 11 10 11
15 15 16 16 15 15 14 14 14 14 13 12 12 11 11 10 10 10 9 9 8 7 6 5 5 4 4 3 4 4 3 3 2 2 1 1 0 0 1 2 2 2 3 4 6 7 8 9 9 9 9 9 8 8 8 8 8 7 7 7 8 8 9 9 9 10 10 11 11
16 16 16 16 15 15 14 14 14 13 13 12 12 11 11 10 10 9 9 8 8 7 5 4 4 3 3 3 3 3 3 3 2 1 1 0 0 1 1 2 2 3 3 5 7 8 8 9 9 10 10 10 8 7 7 7 7 7 7 6 7 8 8 9 9 9 10 11 11
16 16 16 16 15 14 14 13 13 13 12 11 11 11 11 10 9 9 8 8 7 6 5 4 3 3 3 3 3 3 3 2 2 1 1 0 1 1 2 2 3 3 4 5 7 8 9 9 10 10 10 11 9 8 7 7 7 7 6 6 7 8 9 9 10 11 11 10 11
15 15 15 15 15 14 13 13 13 12 11 11 11 11 10 9 9 8 7 7 6 5 5 4 4 4 4 3 3 3 2 2 1 1 1 1 2 2 2 3 3 3 4 6 7 8 9 10 10 10 11 11 10 9 8 8 7 7 7 7 8 9 9 9 10 10 11 11 11
15 15 15 15 15 14 13 13 12 12 11 11 11 10 9 9 8 8 7 6 6 5 5 5 5 5 4 3 3 3 2 2 1 1 1 2 2 2 3 3 3 3 4 6 8 9 10 10 10 11 11 12 11 10 9 8 8 8 8 8 9 10 10 9 9 10 11 12 12
15 15 15 15 14 14 13 12 12 11 11 11 10 10 9 8 8 7 7 6 5 5 5 5 5 4 4 3 3 2 2 2 1 1 1 2 2 2 3 3 3 3 5 7 9 9 10 10 11 11 12 13 11 10 9 8 7 7 7 8 9 9 10 10 10 10 11 12 11
15 15 15 14 14 13 13 12 11 11 11 10 10 9 9 8 8 7 6 5 4 4 4 4 4 3 3 2 2 2 1 1 1 1 1 2 2 3 3 3 3 4 5 8 9 10 10 11 11 12 13 13 10 9 9 9 8 7 8 9 9 9 10 10 10 11 11 11 11
15 15 14 14 13 12 12 12 11 11 10 10 9 9 8 8 7 7 6 5 4 4 4 3 3 3 2 2 1 1 1 1 1 2 2 2 2 3 3 4 3 4 6 7 9 10 10 11 12 12 13 12 9 8 8 9 8 8 9 9 9 9 10 10 10 10 10 11 11
14 14 14 13 13 12 12 11 11 10 10 10 9 9 8 7 7 6 5 5 5 5 4 4 3 3 3 2 2 1 2 2 2 2 2 2 3 4 4 4 4 5 6 7 9 10 11 11 12 13 12 11 8 8 8 8 8 8 9 9 9 9 10 10 9 10 10 10 10
13 14 14 13 13 12 11 11 11 10 10 9 9 8 8 7 6 5 5 4 4 4 4 4 3 3 2 2 2 2 2 2 2 2 2 3 3 4 5 5 5 5 6 7 9 10 11 11 12 13 12 10 8 8 8 7 7 7 8 9 9 9 9 9 9 9 9 9 9
13 13 13 13 12 12 11 10 10 10 10 9 8 8 7 7 6 5 4 3 3 4 4 3 3 2 2 2 2 2 2 2 2 2 3 3 4 4 5 6 5 5 6 7 8 10 11 12 12 13 12 10 9 8 7 7 7 7 8 8 8 9 9 8 8 8 8 9 9
12 12 12 12 12 11 11 10 10 10 9 9 8 8 7 6 5 4 3 2 2 3 3 3 3 2 2 1 2 2 2 2 2 2 3 3 4 4 5 6 6 6 6 7 8 10 11 12 12 13 12 10 9 8 7 7 7 8 8 8 8 8 9 8 7 7 7 9 11
12 12 12 12 11 11 11 10 10 9 9 8 8 7 7 6 5 4 3 2 2 2 3 3 3 2 2 1 2 2 2 2 2 2 3 3 3 4 5 5 6 6 6 7 8 10 11 12 13 13 12 10 8 7 7 7 7 8 8 7 7 8 8 7 7 7 8 9 11
11 11 11 11 11 11 11 10 10 9 8 8 8 7 6 5 4 4 3 3 2 2 2 3 3 2 2 1 1 2 2 2 2 2 2 3 3 3 4 5 6 6 6 7 8 10 11 12 12 13 12 10 8 7 7 7 7 8 8 8 8 8 7 8 7 8 8 9 10
Wind_Direction
145 144 144 146 149 153 157 160 161 160 158 155 154 154 155 154 149 146 144 143 138 135 133 132 132 133 136 139 138 136 134 133 132 132 132 133 132 133 135 136 139 142 144 147 149 150 150 149 144 145 153 169 189 191 194 203 218 231 238 245 252 260 264 267 269 270 271 270 271
146 145 146 149 153 155 156 157 158 157 156 153 152 152 151 149 145 142 140 137 133 130 128 127 130 134 137 139 137 136 135 134 134 134 134 134 134 135 137 139 142 145 147 149 151 152 152 154 151 153 159 176 199 203 202 203 224 236 242 245 252 259 265 266 269 273 277 278 277
147 148 150 154 156 157 156 157 157 155 152 149 148 148 147 143 139 137 134 132 129 127 126 127 132 135 137 138 137 136 135 135 136 136 135 135 137 138 140 141 144 146 148 150 150 150 151 154 153 158 170 189 209 211 205 201 221 239 248 250 254 258 262 265 272 278 281 280 282
150 152 155 159 159 159 158 158 156 153 150 146 144 143 140 136 133 130 129 127 126 126 128 131 133 136 138 138 137 137 136 137 137 137 136 137 139 140 142 144 145 146 147 147 147 148 149 151 154 168 189 207 219 218 211 207 221 233 245 254 258 260 263 268 276 282 285 285 287
154 157 159 161 161 159 157 155 153 150 147 144 142 139 136 131 129 128 127 127 128 130 132 133 134 136 138 138 138 137 136 137 137 137 137 138 140 142 145 147 146 146 145 145 146 147 151 157 160 179 200 212 222 221 219 220 229 235 237 239 246 255 264 272 277 281 283 285 287
158 159 159 159 159 156 152 151 149 147 145 143 142 139 137 135 134 133 131 129 129 129 131 132 133 135 137 138 137 137 137 138 139 139 139 139 142 144 146 146 146 145 145 145 147 152 159 167 170 186 200 214 222 216 211 220 234 241 243 239 237 248 261 270 277 280 281 282 289
158 158 157 156 154 151 148 148 146 145 143 142 142 141 139 138 136 133 131 128 128 130 132 134 136 138 139 139 138 138 139 140 140 141 141 142 144 146 147 146 147 147 147 149 153 160 168 178 183 192 200 209 218 213 207 216 234 248 256 257 251 255 264 272 275 277 281 286 293
156 154 153 150 149 147 146 146 145 144 143 142 142 141 138 136 134 132 129 128 130 133 135 136 139 140 140 140 139 139 140 141 142 142 143 144 145 146 147 147 148 148 150 155 161 168 174 185 197 204 206 209 219 215 209 212 236 255 266 273 269 266 267 275 276 279 283 289 292
150 147 145 144 145 145 144 144 144 143 142 140 138 137 135 132 132 131 130 130 133 134 136 137 140 140 139 139 139 139 141 142 142 143 144 145 146 148 149 150 151 152 154 160 168 176 183 196 205 208 210 215 222 219 215 213 240 258 269 277 276 275 274 275 279 281 284 287 290
144 141 140 141 142 142 142 142 141 139 136 134 133 132 131 130 130 130 130 131 132 134 136 138 139 139 138 138 138 139 140 141 142 143 144 145 147 150 152 154 157 158 160 165 174 184 195 208 211 212 213 220 228 228 223 224 245 260 269 276 280 282 283 281 283 284 285 287 292
142 140 141 141 142 141 139 138 135 133 131 129 129 129 129 129 129 129 129 130 132 134 136 138 139 138 137 137 137 138 139 140 141 142 143 144 147 149 153 156 160 162 164 169 180 194 206 218 219 217 218 226 231 231 230 233 251 263 271 277 281 282 283 285 288 289 290 293 297
140 140 140 140 140 138 136 133 130 128 127 127 127 128 128 128 128 128 129 131 131 132 134 136 136 136 135 134 136 137 137 139 140 140 140 141 144 148 152 156 161 165 169 173 187 203 216 223 227 228 228 232 239 240 242 246 260 269 274 279 280 282 284 289 292 294 297 301 300
138 138 138 138 137 135 132 130 127 127 127 127 127 127 126 127 128 130 131 131 130 130 131 133 133 132 132 132 134 135 136 138 139 139 139 142 146 150 155 159 165 169 173 179 194 209 221 225 231 237 242 246 256 262 265 265 271 276 280 284 284 287 290 294 297 299 300 300 298
137 137 137 137 135 133 131 129 127 127 127 127 126 126 126 127 129 131 131 130 128 128 128 129 128 128 128 130 132 134 136 138 139 139 141 144 150 155 160 163 169 175 180 186 197 212 224 230 233 242 252 260 267 272 273 272 275 279 284 287 289 291 294 297 299 299 299 298 297
137 137 137 136 135 133 130 129 128 127 127 126 126 127 127 128 130 130 129 127 126 126 126 126 123 123 124 128 131 134 137 138 139 141 144 148 154 159 164 166 172 180 187 193 200 211 223 232 238 247 258 266 272 275 277 276 278 280 283 286 289 291 294 297 298 298 298 298 299
137 137 137 136 135 133 131 129 127 127 127 127 128 128 129 129 129 128 127 126 125 124 123 122 121 122 124 128 132 135 137 139 142 145 148 152 158 163 167 169 174 182 192 201 208 214 220 230 240 250 261 269 274 278 280 281 282 282 282 284 287 289 292 295 295 296 296 297 298
137 137 137 136 135 133 131 128 127 127 128 129 129 129 128 128 127 127 127 127 125 124 123 123 123 125 128 131 135 137 140 143 146 148 152 155 160 163 166 168 173 183 197 213 222 225 228 233 241 250 258 266 272 277 280 283 283 283 284 285 286 288 289 291 292 293 294 295 296
137 137 136 135 133 131 129 127 127 127 128 129 129 128 127 127 127 127 126 126 125 125 126 125 126 129 133 136 138 140 143 145 147 148 151 154 157 160 162 165 173 186 206 224 235 241 245 247 250 254 259 264 269 275 279 281 283 284 285 286 286 287 287 287 287 289 291 293 295
136 136 134 133 130 128 127 126 126 127 128 128 128 127 127 127 127 126 125 125 126 127 127 127 129 132 135 137 139 140 140 142 143 144 145 149 153 155 159 165 175 193 213 232 244 252 257 260 261 263 267 270 273 277 280 282 283 284 285 286 286 286 286 285 285 286 288 291 293
134 133 132 129 127 126 126 126 126 127 127 127 126 126 126 126 126 125 125 126 127 127 127 128 130 133 135 137 137 137 137 137 140 142 144 148 151 154 159 169 185 202 221 238 250 257 262 266 268 271 273 276 279 281 283 284 284 286 286 287 287 286 286 286 285 285 286 287 290
131 129 128 126 125 125 125 125 125 125 125 124 124 125 124 124 124 124 124 125 126 127 127 129 132 134 136 137 137 136 135 134 138 141 145 148 149 152 160 179 204 223 238 250 261 268 272 274 276 278 279 280 282 283 285 287 288 289 289 289 289 289 288 286 284 283 284 286 289
126 125 123 123 123 123 123 123 124 123 123 123 123 123 122 121 121 121 123 124 125 126 127 129 131 134 135 137 136 135 134 133 137 141 145 147 147 152 166 195 224 246 260 270 279 282 284 283 283 282 281 281 282 284 286 288 290 291 292 292 292 291 289 286 283 282 283 286 289
122 121 120 120 122 122 122 123 123 122 122 121 121 120 119 118 119 120 122 123 124 124 126 126 128 130 132 134 135 135 136 137 140 142 145 146 147 157 179 214 235 258 277 291 301 303 301 296 292 289 286 284 284 285 286 287 290 292 294 295 294 293 290 287 285 284 286 288 290
121 121 121 121 122 123 123 123 122 121 121 120 119 119 118 118 119 121 121 122 122 123 124 123 124 125 127 130 133 135 138 141 143 144 145 148 153 170 198 226 248 278 302 322 328 322 317 310 307 304 301 299 296 294 292 290 291 293 295 296 297 295 293 290 289 288 289 291 292
122 122 122 122 123 124 123 123 122 121 120 119 118 118 119 120 120 121 121 121 121 122 122 121 123 124 126 128 130 132 134 138 139 141 144 149 155 179 224 252 281 310 334 345 333 320 313 310 311 311 311 310 307 303 299 294 293 293 295 296 297 296 294 292 291 291 292 293 295
122 122 123 124 124 123 122 121 120 119 118 118 118 119 120 121 121 121 122 122 123 123 124 124 126 128 129 129 130 129 129 127 126 130 135 141 144 184 274 298 326 344 352 344 326 316 312 310 310 310 310 309 308 305 301 297 296 295 295 295 294 292 292 292 293 294 295 297 299
122 122 123 123 122 121 120 120 119 118 119 119 120 121 122 123 123 123 123 124 125 125 125 126 128 129 129 129 129 128 124 119 115 114 112 111 97 344 320 327 344 356 352 337 324 319 316 314 314 313 312 310 308 306 302 299 298 296 294 292 289 288 290 292 295 298 300 301 302
122 122 122 121 120 120 119 119 119 119 120 121 121 122 123 124 124 124 125 126 127 127 127 127 128 129 129 127 126 122 119 117 117 118 116 116 75 338 331 340 350 356 349 334 324 320 319 318 317 317 316 315 310 304 299 295 294 293 292 290 290 291 293 296 299 301 303 305 305
121 121 121 120 120 120 120 120 120 121 121 122 123 124 124 125 125 126 127 129 129 129 128 127 129 130 129 127 124 122 119 116 118 123 132 141 17 353 350 349 351 353 347 334 325 322 321 320 320 320 319 318 311 304 298 295 294 294 294 294 295 297 299 301 303 304 305 305 305
121 121 120 120 120 120 120 120 121 122 122 123 124 125 125 125 126 127 128 127 126 124 123 124 128 127 125 125 128 127 124 121 127 132 127 41 9 3 358 351 350 349 344 334 327 325 323 323 322 321 320 318 311 304 297 295 295 295 296 295 297 300 302 303 304 304 305 305 305
121 121 120 120 120 120 121 121 122 123 124 125 126 126 126 125 125 124 123 121 118 116 116 120 121 120 121 125 127 127 128 133 136 126 81 26 10 359 352 346 347 346 342 336 330 327 326 325 324 322 320 317 311 304 297 295 295 295 296 297 299 301 302 302 303 304 305 305 305
121 121 120 120 120 121 122 123 124 124 125 125 125 124 122 121 119 117 115 114 115 117 121 124 123 125 127 129 129 130 132 131 117 86 47 22 5 353 343 337 344 350 347 338 332 329 328 326 324 322 319 317 310 303 297 294 294 295 296 297 299 300 301 302 302 303 304 305 305
121 121 121 121 121 122 123 124 124 124 124 123 121 120 118 117 115 113 112 113 117 121 124 124 124 125 126 128 131 133 131 122 99 72 45 20 1 346 338 334 348 356 351 339 333 330 328 326 324 322 319 317 310 302 296 294 294 295 296 298 299 299 300 300 300 302 303 303 303
121 121 121 121 121 122 123 123 123 122 122 120 119 118 117 115 114 113 113 113 114 114 113 110 110 110 111 117 120 124 120 107 87 66 42 17 355 344 339 337 353 357 351 338 333 330 328 325 324 322 320 317 309 302 297 296 296 296 297 298 298 299 299 299 299 299 300 301 303
123 122 121 121 121 122 122 123 122 122 121 119 117 116 115 114 115 116 116 116 115 112 110 108 111 115 121 125 128 117 98 78 63 48 29 6 350 343 339 338 347 351 346 336 332 330 327 325 324 324 321 317 309 303 300 300 299 299 299 298 298 298 298 299 298 299 300 301 304
123 123 122 122 122 123 124 124 123 122 119 118 117 116 115 114 115 116 119 121 122 122 123 127 134 139 141 140 132 106 75 55 42 31 19 3 348 342 337 334 340 345 344 337 332 329 327 326 326 325 322 317 310 306 305 304 302 301 300 300 300 301 301 302 301 301 303 306 308
124 124 124 124 125 125 126 125 124 121 119 118 118 118 117 117 116 118 123 129 129 129 131 136 139 135 127 116 99 81 64 45 27 17 9 4 351 342 335 331 334 339 341 337 332 329 328 327 327 326 324 318 314 310 308 305 303 302 302 302 303 304 305 304 304 306 308 311 308
125 125 126 126 126 126 126 125 123 121 120 119 119 119 119 117 117 120 125 132 131 131 132 133 125 114 102 91 89 82 73 54 29 11 3 0 354 343 334 327 331 335 337 336 331 329 328 327 328 328 326 320 317 314 310 306 305 304 305 306 307 307 308 307 309 311 311 308 299
125 126 126 126 126 126 126 123 121 120 120 120 119 118 117 114 114 115 117 120 124 125 125 120 111 104 97 91 88 84 80 70 45 18 2 357 353 342 331 324 326 329 332 333 330 329 328 328 329 329 328 322 319 315 311 307 306 307 308 309 309 308 309 310 313 311 305 297 291
124 124 125 125 125 125 123 120 118 117 118 118 117 115 113 112 113 115 119 120 122 119 113 107 102 99 92 79 70 66 65 64 50 28 6 352 346 334 324 320 322 324 327 330 329 328 328 329 330 330 329 324 321 316 311 308 309 310 311 312 311 311 311 313 311 306 299 294 294
122 122 122 122 121 120 118 116 114 113 113 113 113 113 113 116 120 125 130 131 126 118 109 102 98 91 81 67 56 46 40 36 35 25 6 344 333 324 320 321 322 323 326 329 330 329 329 329 330 330 330 327 322 317 312 311 311 312 313 314 314 312 311 311 307 302 300 301 302